Location: Unspecified
(0.0000°N, 0.0000°E)
Time: 09:00:06
(UTC+02:00)

AO-40 - Visible Passes

Search period start: 25 October 2014 00:00
Search period end: 03 November 2014 23:00
Orbit: 1080 x 58740 km, 8.6° (Epoch: 24 October)

Date Brightness Start Highest point End Pass type
(mag) Time Alt. Az. Time Alt. Az. Time Alt. Az.
25 Oct ? 00:00:00 41° E 00:20:53 41° E 01:49:56 10° E visible
25 Oct ? 22:12:08 10° W 23:47:31 52° WSW 03:43:22 10° W visible
26 Oct ? 15:53:40 10° W 22:43:15 86° S 05:13:50 10° W visible
27 Oct ? 17:41:30 10° E 00:14:55 90° S 05:45:40 10° ENE visible
28 Oct ? 19:15:29 10° E 22:53:13 37° E 00:19:51 10° E visible
29 Oct ? 20:43:09 10° W 22:19:47 56° WSW 03:35:10 10° W visible
30 Oct ? 15:26:07 10° W 22:34:36 86° S 05:05:46 10° W visible
31 Oct ? 17:32:37 10° E 00:07:27 90° N 05:18:01 10° ENE visible
01 Nov ? 19:08:55 10° E 22:25:37 34° E 23:49:16 10° E visible
02 Nov ? 20:14:21 10° W 21:52:04 60° WSW 03:26:45 10° W visible
03 Nov ? 14:58:33 10° W 22:25:50 87° S 23:00:00 82° WSW visible
